Terug naar catalogus

THOR ABLESTAR DEB

ActiefLEO
NORAD 158·DEBRIS·🇺🇸 United States

Gelanceerd Jun 29, 1961 vanaf Cape Canaveral Space Force Station

Loading…

Volgende Passages (komende 24 uur)

TLE

VersSource: Space-Track

Epoch: Sep 14, 2026, 15:35 UTC

1 00158U 61015AU  26257.64998085  .00000171  00000-0  57081-3 0  9991
2 00158  67.0758  38.0608 0611038 190.0231 168.8131 12.66263198 16547

Volg THOR ABLESTAR DEB in realtime met AllMySat

Download on the App Store